Year,Month,Day,Hour,Minute,Value (Times are PST for temperature in C)
2017,02,15,00,00,7.60
2017,02,15,00,01,7.60
2017,02,15,00,02,7.60
2017,02,15,00,03,7.60
2017,02,15,00,04,7.60
2017,02,15,00,05,7.60
2017,02,15,00,06,7.60
2017,02,15,00,07,7.60
2017,02,15,00,08,7.60
2017,02,15,00,09,7.70
2017,02,15,00,10,7.60
2017,02,15,00,11,7.70
2017,02,15,00,12,7.70
2017,02,15,00,13,7.70
2017,02,15,00,14,7.70
2017,02,15,00,15,7.70
2017,02,15,00,16,7.70
2017,02,15,00,17,7.80
2017,02,15,00,18,7.80
2017,02,15,00,19,7.80
2017,02,15,00,20,7.80
2017,02,15,00,21,7.80
2017,02,15,00,22,7.80
2017,02,15,00,23,7.80
2017,02,15,00,24,7.80
2017,02,15,00,25,7.80
2017,02,15,00,26,7.80
2017,02,15,00,27,7.80
2017,02,15,00,28,7.80
2017,02,15,00,29,7.80
2017,02,15,00,30,7.80
2017,02,15,00,31,7.80
2017,02,15,00,32,7.90
2017,02,15,00,33,7.90
2017,02,15,00,34,7.90
2017,02,15,00,35,7.90
2017,02,15,00,36,7.90
2017,02,15,00,37,7.90
2017,02,15,00,38,7.90
2017,02,15,00,39,7.90
2017,02,15,00,40,7.90
2017,02,15,00,41,7.90
2017,02,15,00,42,8.00
2017,02,15,00,43,8.00
2017,02,15,00,44,8.00
2017,02,15,00,45,8.00
2017,02,15,00,46,8.00
2017,02,15,00,47,8.00
2017,02,15,00,48,8.10
2017,02,15,00,49,8.10
2017,02,15,00,50,8.10
2017,02,15,00,51,8.10
2017,02,15,00,52,8.10
2017,02,15,00,53,8.10
2017,02,15,00,54,8.10
2017,02,15,00,55,8.10
2017,02,15,00,56,8.10
2017,02,15,00,57,8.10
2017,02,15,00,58,8.20
2017,02,15,00,59,8.20
2017,02,15,01,00,8.20
2017,02,15,01,01,8.20
2017,02,15,01,02,8.30
2017,02,15,01,03,8.30
2017,02,15,01,04,8.30
2017,02,15,01,05,8.30
2017,02,15,01,06,8.30
2017,02,15,01,07,8.30
2017,02,15,01,08,8.30
2017,02,15,01,09,8.30
2017,02,15,01,10,8.30
2017,02,15,01,11,8.30
2017,02,15,01,12,8.30
2017,02,15,01,13,8.30
2017,02,15,01,14,8.30
2017,02,15,01,15,8.30
2017,02,15,01,16,8.30
2017,02,15,01,17,8.30
2017,02,15,01,18,8.30
2017,02,15,01,19,8.40
2017,02,15,01,20,8.40
2017,02,15,01,21,8.40
2017,02,15,01,22,8.40
2017,02,15,01,23,8.40
2017,02,15,01,24,8.40
2017,02,15,01,25,8.40
2017,02,15,01,26,8.40
2017,02,15,01,27,8.40
2017,02,15,01,28,8.50
2017,02,15,01,29,8.50
2017,02,15,01,30,8.50
2017,02,15,01,31,8.50
2017,02,15,01,32,8.50
2017,02,15,01,33,8.50
2017,02,15,01,34,8.50
2017,02,15,01,35,8.50
2017,02,15,01,36,8.50
2017,02,15,01,37,8.50
2017,02,15,01,38,8.60
2017,02,15,01,39,8.60
2017,02,15,01,40,8.60
2017,02,15,01,41,8.60
2017,02,15,01,42,8.60
2017,02,15,01,43,8.60
2017,02,15,01,44,8.60
2017,02,15,01,45,8.60
2017,02,15,01,46,8.60
2017,02,15,01,47,8.60
2017,02,15,01,48,8.60
2017,02,15,01,49,8.60
2017,02,15,01,50,8.60
2017,02,15,01,51,8.60
2017,02,15,01,52,8.60
2017,02,15,01,53,8.60
2017,02,15,01,54,8.60
2017,02,15,01,55,8.60
2017,02,15,01,56,8.60
2017,02,15,01,57,8.60
2017,02,15,01,58,8.60
2017,02,15,01,59,8.60
2017,02,15,02,00,8.60
2017,02,15,02,01,8.60
2017,02,15,02,02,8.70
2017,02,15,02,03,8.70
2017,02,15,02,04,8.70
2017,02,15,02,05,8.70
2017,02,15,02,06,8.70
2017,02,15,02,07,8.70
2017,02,15,02,08,8.70
2017,02,15,02,09,8.70
2017,02,15,02,10,8.70
2017,02,15,02,11,8.70
2017,02,15,02,12,8.70
2017,02,15,02,13,8.70
2017,02,15,02,14,8.70
2017,02,15,02,15,8.70
2017,02,15,02,16,8.70
2017,02,15,02,17,8.70
2017,02,15,02,18,8.70
2017,02,15,02,19,8.70
2017,02,15,02,20,8.70
2017,02,15,02,21,8.70
2017,02,15,02,22,8.70
2017,02,15,02,23,8.70
2017,02,15,02,24,8.70
2017,02,15,02,25,8.70
2017,02,15,02,26,8.70
2017,02,15,02,27,8.70
2017,02,15,02,28,8.70
2017,02,15,02,29,8.70
2017,02,15,02,30,8.70
2017,02,15,02,31,8.70
2017,02,15,02,32,8.70
2017,02,15,02,33,8.70
2017,02,15,02,34,8.70
2017,02,15,02,35,8.70
2017,02,15,02,36,8.70
2017,02,15,02,37,8.70
2017,02,15,02,38,8.70
2017,02,15,02,39,8.70
2017,02,15,02,40,8.70
2017,02,15,02,41,8.70
2017,02,15,02,42,8.70
2017,02,15,02,43,8.70
2017,02,15,02,44,8.70
2017,02,15,02,45,8.70
2017,02,15,02,46,8.70
2017,02,15,02,47,8.70
2017,02,15,02,48,8.70
2017,02,15,02,49,8.70
2017,02,15,02,50,8.70
2017,02,15,02,51,8.70
2017,02,15,02,52,8.70
2017,02,15,02,53,8.70
2017,02,15,02,54,8.70
2017,02,15,02,55,8.70
2017,02,15,02,56,8.70
2017,02,15,02,57,8.70
2017,02,15,02,58,8.70
2017,02,15,02,59,8.70
2017,02,15,03,00,8.70
2017,02,15,03,01,8.70
2017,02,15,03,02,8.70
2017,02,15,03,03,8.70
2017,02,15,03,04,8.70
2017,02,15,03,05,8.70
2017,02,15,03,06,8.70
2017,02,15,03,07,8.70
2017,02,15,03,08,8.70
2017,02,15,03,09,8.70
2017,02,15,03,10,8.70
2017,02,15,03,11,8.70
2017,02,15,03,12,8.70
2017,02,15,03,13,8.70
2017,02,15,03,14,8.70
2017,02,15,03,15,8.70
2017,02,15,03,16,8.70
2017,02,15,03,17,8.70
2017,02,15,03,18,8.70
2017,02,15,03,19,8.70
2017,02,15,03,20,8.70
2017,02,15,03,21,8.70
2017,02,15,03,22,8.70
2017,02,15,03,23,8.70
2017,02,15,03,24,8.70
2017,02,15,03,25,8.70
2017,02,15,03,26,8.70
2017,02,15,03,27,8.70
2017,02,15,03,28,8.70
2017,02,15,03,29,8.70
2017,02,15,03,30,8.70
2017,02,15,03,31,8.70
2017,02,15,03,32,8.70
2017,02,15,03,33,8.70
2017,02,15,03,34,8.70
2017,02,15,03,35,8.70
2017,02,15,03,36,8.70
2017,02,15,03,37,8.70
2017,02,15,03,38,8.70
2017,02,15,03,39,8.70
2017,02,15,03,40,8.70
2017,02,15,03,41,8.70
2017,02,15,03,42,8.70
2017,02,15,03,43,8.70
2017,02,15,03,44,8.70
2017,02,15,03,45,8.70
2017,02,15,03,46,8.70
2017,02,15,03,47,8.70
2017,02,15,03,48,8.80
2017,02,15,03,49,8.80
2017,02,15,03,50,8.80
2017,02,15,03,51,8.80
2017,02,15,03,52,8.80
2017,02,15,03,53,8.70
2017,02,15,03,54,8.70
2017,02,15,03,55,8.70
2017,02,15,03,56,8.70
2017,02,15,03,57,8.70
2017,02,15,03,58,8.60
2017,02,15,03,59,8.60
2017,02,15,04,00,8.60
2017,02,15,04,01,8.60
2017,02,15,04,02,8.50
2017,02,15,04,03,8.50
2017,02,15,04,04,8.50
2017,02,15,04,05,8.50
2017,02,15,04,06,8.50
2017,02,15,04,07,8.40
2017,02,15,04,08,8.40
2017,02,15,04,09,8.40
2017,02,15,04,10,8.40
2017,02,15,04,11,8.40
2017,02,15,04,12,8.40
2017,02,15,04,13,8.40
2017,02,15,04,14,8.40
2017,02,15,04,15,8.40
2017,02,15,04,16,8.40
2017,02,15,04,17,8.40
2017,02,15,04,18,8.40
2017,02,15,04,19,8.40
2017,02,15,04,20,8.40
2017,02,15,04,21,8.40
2017,02,15,04,22,8.40
2017,02,15,04,23,8.40
2017,02,15,04,24,8.40
2017,02,15,04,25,8.40
2017,02,15,04,26,8.40
2017,02,15,04,27,8.40
2017,02,15,04,28,8.40
2017,02,15,04,29,8.40
2017,02,15,04,30,8.40
2017,02,15,04,31,8.40
2017,02,15,04,32,8.30
2017,02,15,04,33,8.30
2017,02,15,04,34,8.30
2017,02,15,04,35,8.30
2017,02,15,04,36,8.30
2017,02,15,04,37,8.30
2017,02,15,04,38,8.30
2017,02,15,04,39,8.30
2017,02,15,04,40,8.30
2017,02,15,04,41,8.30
2017,02,15,08,21,7.90
2017,02,15,08,22,7.90
2017,02,15,08,23,8.00
2017,02,15,08,24,8.00
2017,02,15,08,25,8.00
2017,02,15,08,26,8.00
2017,02,15,08,27,8.10
2017,02,15,08,28,8.10
2017,02,15,08,29,8.10
2017,02,15,08,30,8.10
2017,02,15,08,31,8.10
2017,02,15,08,32,8.10
2017,02,15,08,33,8.10
2017,02,15,08,34,8.20
2017,02,15,08,35,8.20
2017,02,15,08,36,8.20
2017,02,15,08,37,8.20
2017,02,15,08,38,8.20
2017,02,15,08,39,8.30
2017,02,15,08,40,8.30
2017,02,15,08,41,8.30
2017,02,15,08,42,8.30
2017,02,15,08,43,8.30
2017,02,15,08,44,8.30
2017,02,15,08,45,8.30
2017,02,15,08,46,8.30
2017,02,15,08,47,8.30
2017,02,15,08,48,8.30
2017,02,15,08,49,8.40
2017,02,15,08,50,8.40
2017,02,15,08,51,8.40
2017,02,15,08,52,8.40
2017,02,15,08,53,8.40
2017,02,15,08,54,8.40
2017,02,15,08,55,8.40
2017,02,15,08,56,8.40
2017,02,15,08,57,8.40
2017,02,15,08,58,8.40
2017,02,15,08,59,8.40
2017,02,15,09,00,8.40
2017,02,15,09,01,8.40
2017,02,15,09,02,8.40
2017,02,15,09,03,8.40
2017,02,15,09,04,8.40
2017,02,15,09,05,8.40
2017,02,15,09,06,8.30
2017,02,15,09,07,8.30
2017,02,15,09,08,8.40
2017,02,15,09,09,8.40
2017,02,15,09,10,8.40
2017,02,15,09,11,8.40
2017,02,15,09,12,8.40
2017,02,15,09,13,8.40
2017,02,15,09,14,8.50
2017,02,15,09,15,8.50
2017,02,15,09,16,8.50
2017,02,15,09,17,8.60
2017,02,15,09,18,8.60
2017,02,15,09,19,8.60
2017,02,15,09,20,8.60
2017,02,15,09,21,8.60
2017,02,15,09,22,8.60
2017,02,15,09,23,8.60
2017,02,15,09,24,8.60
2017,02,15,09,25,8.60
2017,02,15,09,26,8.60
2017,02,15,09,27,8.60
2017,02,15,09,28,8.60
2017,02,15,09,29,8.70
2017,02,15,09,30,8.70
2017,02,15,09,31,8.70
2017,02,15,09,32,8.80
2017,02,15,09,33,8.80
2017,02,15,09,34,8.80
2017,02,15,09,35,8.90
2017,02,15,09,36,8.90
2017,02,15,09,37,8.90
2017,02,15,09,38,8.90
2017,02,15,09,39,8.90
2017,02,15,09,40,8.90
2017,02,15,09,41,8.90
2017,02,15,09,42,8.90
2017,02,15,09,43,8.90
2017,02,15,09,44,8.90
2017,02,15,09,45,8.90
2017,02,15,09,46,8.90
2017,02,15,09,47,8.90
2017,02,15,09,48,8.90
2017,02,15,09,49,8.90
2017,02,15,09,50,8.90
2017,02,15,09,51,8.90
2017,02,15,09,52,8.90
2017,02,15,09,53,9.00
2017,02,15,09,54,9.00
2017,02,15,09,55,9.00
2017,02,15,09,56,9.10
2017,02,15,09,57,9.10
2017,02,15,09,58,9.20
2017,02,15,09,59,9.20
2017,02,15,10,00,9.20
2017,02,15,10,01,9.20
2017,02,15,10,02,9.20
2017,02,15,10,03,9.20
2017,02,15,10,04,9.30
2017,02,15,10,05,9.30
2017,02,15,10,06,9.30
2017,02,15,10,07,9.30
2017,02,15,10,08,9.30
2017,02,15,10,09,9.30
2017,02,15,10,10,9.30
2017,02,15,10,11,9.30
2017,02,15,10,12,9.30
2017,02,15,10,13,9.30
2017,02,15,10,14,9.30
2017,02,15,10,15,9.40
2017,02,15,10,16,9.50
2017,02,15,10,17,9.50
2017,02,15,10,18,9.60
2017,02,15,10,19,9.70
2017,02,15,10,20,9.70
2017,02,15,10,21,9.80
2017,02,15,10,22,9.80
2017,02,15,10,23,9.80
2017,02,15,10,24,9.80
2017,02,15,10,25,9.90
2017,02,15,10,26,9.90
2017,02,15,10,27,9.90
2017,02,15,10,28,9.90
2017,02,15,10,29,9.90
2017,02,15,10,30,9.90
2017,02,15,10,31,9.90
2017,02,15,10,32,9.90
2017,02,15,10,33,9.90
2017,02,15,10,34,9.90
2017,02,15,10,35,10.00
2017,02,15,10,36,10.00
2017,02,15,10,37,10.00
2017,02,15,10,38,10.00
2017,02,15,10,39,10.10
2017,02,15,10,40,10.10
2017,02,15,10,41,10.10
2017,02,15,10,42,10.10
2017,02,15,10,43,10.10
2017,02,15,10,44,10.10
2017,02,15,10,45,10.10
2017,02,15,10,46,10.10
2017,02,15,10,47,10.10
2017,02,15,10,48,10.10
2017,02,15,10,49,10.20
2017,02,15,10,50,10.20
2017,02,15,10,51,10.10
2017,02,15,10,52,10.10
2017,02,15,10,53,10.10
2017,02,15,10,54,10.10
2017,02,15,10,55,10.00
2017,02,15,10,56,10.00
2017,02,15,10,57,9.90
2017,02,15,10,58,9.90
2017,02,15,10,59,9.80
2017,02,15,11,00,9.80
2017,02,15,11,01,9.80
2017,02,15,11,02,9.80
2017,02,15,11,03,9.80
2017,02,15,11,04,9.80
2017,02,15,11,05,9.80
2017,02,15,11,06,9.80
2017,02,15,11,07,9.80
2017,02,15,11,08,9.80
2017,02,15,11,09,9.80
2017,02,15,11,10,9.80
2017,02,15,11,11,9.80
2017,02,15,11,12,9.80
2017,02,15,11,13,9.80
2017,02,15,11,14,9.80
2017,02,15,11,15,9.80
2017,02,15,11,16,9.80
2017,02,15,11,17,9.80
2017,02,15,11,18,9.80
2017,02,15,11,19,9.90
2017,02,15,11,20,9.90
2017,02,15,11,21,10.00
2017,02,15,11,22,10.00
2017,02,15,11,23,10.00
2017,02,15,11,24,10.10
2017,02,15,11,25,10.10
2017,02,15,11,26,10.10
2017,02,15,11,27,10.10
2017,02,15,11,28,10.20
2017,02,15,11,29,10.20
2017,02,15,11,30,10.20
2017,02,15,11,31,10.20
2017,02,15,11,32,10.20
2017,02,15,11,33,10.20
2017,02,15,11,34,10.30
2017,02,15,11,35,10.30
2017,02,15,11,36,10.30
2017,02,15,11,37,10.30
2017,02,15,11,38,10.30
2017,02,15,11,39,10.30
2017,02,15,11,40,10.40
2017,02,15,11,41,10.40
2017,02,15,11,42,10.40
2017,02,15,11,43,10.40
2017,02,15,11,44,10.30
2017,02,15,11,45,10.30
2017,02,15,11,46,10.30
2017,02,15,11,47,10.20
2017,02,15,11,48,10.20
2017,02,15,11,49,10.20
2017,02,15,11,50,10.10
2017,02,15,11,51,10.10
2017,02,15,11,52,10.10
2017,02,15,11,53,10.10
2017,02,15,11,54,10.00
2017,02,15,11,55,10.00
2017,02,15,11,56,10.00
2017,02,15,11,57,10.00
2017,02,15,11,58,10.00
2017,02,15,11,59,10.00
2017,02,15,12,00,10.00
2017,02,15,12,01,10.00
2017,02,15,12,02,10.00
2017,02,15,12,03,10.00
2017,02,15,12,04,10.00
2017,02,15,12,05,10.00
2017,02,15,12,06,10.10
2017,02,15,12,07,10.00
2017,02,15,12,08,10.00
2017,02,15,12,09,10.00
2017,02,15,12,10,10.00
2017,02,15,12,11,10.00
2017,02,15,12,12,10.00
2017,02,15,12,13,9.90
2017,02,15,12,14,9.90
2017,02,15,12,15,9.90
2017,02,15,12,16,9.90
2017,02,15,12,17,9.90
2017,02,15,12,18,9.90
2017,02,15,12,19,9.90
2017,02,15,12,20,9.90
2017,02,15,12,21,9.90
2017,02,15,12,22,9.90
2017,02,15,12,23,9.90
2017,02,15,12,24,9.90
2017,02,15,12,25,9.90
2017,02,15,12,26,9.90
2017,02,15,12,27,9.90
2017,02,15,12,28,9.80
2017,02,15,12,29,9.80
2017,02,15,12,30,9.80
2017,02,15,12,31,9.80
2017,02,15,12,32,9.80
2017,02,15,12,33,9.80
2017,02,15,12,34,9.80
2017,02,15,12,35,9.90
2017,02,15,12,36,9.90
2017,02,15,12,37,9.90
2017,02,15,12,38,9.90
2017,02,15,12,39,9.90
2017,02,15,12,40,9.80
2017,02,15,12,41,9.80
2017,02,15,12,42,9.80
2017,02,15,12,43,9.80
2017,02,15,12,44,9.80
2017,02,15,12,45,9.90
2017,02,15,12,46,9.90
2017,02,15,12,47,9.90
2017,02,15,12,48,9.90
2017,02,15,12,49,9.90
2017,02,15,12,50,9.90
2017,02,15,12,51,9.90
2017,02,15,12,52,9.90
2017,02,15,12,53,9.90
2017,02,15,12,54,9.90
2017,02,15,12,55,9.90
2017,02,15,12,56,9.90
2017,02,15,12,57,9.90
2017,02,15,12,58,9.90
2017,02,15,12,59,9.80
2017,02,15,13,00,9.90
2017,02,15,13,01,9.80
2017,02,15,13,02,9.80
2017,02,15,13,03,9.80
2017,02,15,13,04,9.80
2017,02,15,13,05,9.80
2017,02,15,13,06,9.80
2017,02,15,13,07,9.80
2017,02,15,13,08,9.80
2017,02,15,13,09,9.80
2017,02,15,13,10,9.80
2017,02,15,13,11,9.80
2017,02,15,13,12,9.80
2017,02,15,13,13,9.80
2017,02,15,13,14,9.80
2017,02,15,13,15,9.80
2017,02,15,13,16,9.80
2017,02,15,13,17,9.80
2017,02,15,13,18,9.80
2017,02,15,13,19,9.80
2017,02,15,13,20,9.80
2017,02,15,13,21,9.80
2017,02,15,13,22,9.80
2017,02,15,13,23,9.80
2017,02,15,13,24,9.80
2017,02,15,13,25,9.80
2017,02,15,13,26,9.80
2017,02,15,13,27,9.80
2017,02,15,13,28,9.80
2017,02,15,13,29,9.80
2017,02,15,13,30,9.90
2017,02,15,13,31,9.90
2017,02,15,13,32,9.90
2017,02,15,13,33,9.90
2017,02,15,13,34,9.90
2017,02,15,13,35,9.90
2017,02,15,13,36,9.90
2017,02,15,13,37,9.90
2017,02,15,13,38,9.90
2017,02,15,13,39,9.90
2017,02,15,13,40,9.90
2017,02,15,13,41,9.90
2017,02,15,13,42,9.90
2017,02,15,13,43,9.90
2017,02,15,13,44,9.90
2017,02,15,13,45,9.90
2017,02,15,13,46,9.90
2017,02,15,13,47,9.90
2017,02,15,13,48,9.90
2017,02,15,13,49,9.90
2017,02,15,13,50,9.90
2017,02,15,13,51,9.90
2017,02,15,13,52,9.90
2017,02,15,13,53,9.90
2017,02,15,13,54,9.90
2017,02,15,13,55,9.90
2017,02,15,13,56,9.90
2017,02,15,13,57,9.90
2017,02,15,13,58,9.90
2017,02,15,13,59,9.90
2017,02,15,14,00,9.90
2017,02,15,14,01,9.90
2017,02,15,14,02,9.90
2017,02,15,14,03,9.90
2017,02,15,14,04,9.90
2017,02,15,14,05,9.90
2017,02,15,14,06,9.90
2017,02,15,14,07,9.90
2017,02,15,14,08,9.90
2017,02,15,14,09,9.90
2017,02,15,14,10,9.90
2017,02,15,14,11,9.90
2017,02,15,14,12,9.90
2017,02,15,14,13,9.90
2017,02,15,14,14,9.90
2017,02,15,14,15,9.90
2017,02,15,14,16,10.00
2017,02,15,14,17,10.00
2017,02,15,14,18,10.00
2017,02,15,14,19,10.00
2017,02,15,14,20,10.00
2017,02,15,14,21,10.00
2017,02,15,14,22,10.00
2017,02,15,14,23,10.00
2017,02,15,14,24,10.00
2017,02,15,14,25,10.00
2017,02,15,14,26,10.00
2017,02,15,14,27,10.00
2017,02,15,14,28,10.00
2017,02,15,14,29,10.00
2017,02,15,14,30,10.00
2017,02,15,14,31,10.00
2017,02,15,14,32,10.00
2017,02,15,14,33,10.00
2017,02,15,14,34,10.00
2017,02,15,14,35,10.00
2017,02,15,14,36,10.00
2017,02,15,14,37,10.00
2017,02,15,14,38,10.00
2017,02,15,14,39,10.00
2017,02,15,14,40,9.90
2017,02,15,14,41,10.00
2017,02,15,14,42,10.00
2017,02,15,14,43,10.00
2017,02,15,14,44,9.90
2017,02,15,14,45,10.00
2017,02,15,14,46,10.00
2017,02,15,14,47,10.00
2017,02,15,14,48,10.00
2017,02,15,14,49,10.00
2017,02,15,14,50,10.00
2017,02,15,14,51,10.00
2017,02,15,14,52,10.00
2017,02,15,14,53,10.00
2017,02,15,14,54,10.00
2017,02,15,14,55,10.00
2017,02,15,14,56,10.00
2017,02,15,14,57,10.00
2017,02,15,14,58,10.00
2017,02,15,14,59,10.00
2017,02,15,15,00,10.00
2017,02,15,15,01,10.00
2017,02,15,15,02,10.00
2017,02,15,15,03,10.00
2017,02,15,15,04,10.00
2017,02,15,15,05,10.00
2017,02,15,15,06,10.00
2017,02,15,15,07,10.00
2017,02,15,15,08,10.00
2017,02,15,15,09,10.00
2017,02,15,15,10,10.00
2017,02,15,15,11,10.00
2017,02,15,15,12,10.00
2017,02,15,15,13,10.00
2017,02,15,15,14,10.00
2017,02,15,15,15,10.00
2017,02,15,15,16,10.00
2017,02,15,15,17,10.00
2017,02,15,15,18,10.00
2017,02,15,15,19,10.00
2017,02,15,15,20,10.00
2017,02,15,15,21,10.00
2017,02,15,15,22,10.00
2017,02,15,15,23,10.00
2017,02,15,15,24,10.10
2017,02,15,15,25,10.10
2017,02,15,15,26,10.10
2017,02,15,15,27,10.10
2017,02,15,15,28,10.10
2017,02,15,15,29,10.10
2017,02,15,15,30,10.10
2017,02,15,15,31,10.10
2017,02,15,15,32,10.10
2017,02,15,15,33,10.10
2017,02,15,15,34,10.10
2017,02,15,15,35,10.10
2017,02,15,15,36,10.10
2017,02,15,15,37,10.10
2017,02,15,15,38,10.10
2017,02,15,15,39,10.10
2017,02,15,15,40,10.10
2017,02,15,15,41,10.10
2017,02,15,15,42,10.20
2017,02,15,15,43,10.20
2017,02,15,15,44,10.20
2017,02,15,15,45,10.20
2017,02,15,15,46,10.20
2017,02,15,15,47,10.20
2017,02,15,15,48,10.20
2017,02,15,15,49,10.20
2017,02,15,15,50,10.20
2017,02,15,15,51,10.20
2017,02,15,15,52,10.20
2017,02,15,15,53,10.20
2017,02,15,15,54,10.20
2017,02,15,15,55,10.20
2017,02,15,15,56,10.20
2017,02,15,15,57,10.20
2017,02,15,15,58,10.20
2017,02,15,15,59,10.20
2017,02,15,16,00,10.20
2017,02,15,16,01,10.20
2017,02,15,16,02,10.30
2017,02,15,16,03,10.30
2017,02,15,16,04,10.30
2017,02,15,16,05,10.30
2017,02,15,16,06,10.30
2017,02,15,16,07,10.30
2017,02,15,16,08,10.30
2017,02,15,16,09,10.30
2017,02,15,16,10,10.30
2017,02,15,16,11,10.30
2017,02,15,16,12,10.30
2017,02,15,16,13,10.30
2017,02,15,16,14,10.30
2017,02,15,16,15,10.30
2017,02,15,16,16,10.30
2017,02,15,16,17,10.30
2017,02,15,16,18,10.30
2017,02,15,16,19,10.30
2017,02,15,16,20,10.30
2017,02,15,16,21,10.30
2017,02,15,16,22,10.30
2017,02,15,16,23,10.30
2017,02,15,16,24,10.30
2017,02,15,16,25,10.30
2017,02,15,16,26,10.30
2017,02,15,16,27,10.30
2017,02,15,16,28,10.20
2017,02,15,16,29,10.20
2017,02,15,16,30,10.20
2017,02,15,16,31,10.20
2017,02,15,16,32,10.20
2017,02,15,16,33,10.20
2017,02,15,16,34,10.20
2017,02,15,16,35,10.20
2017,02,15,16,36,10.20
2017,02,15,16,37,10.20
2017,02,15,16,38,10.20
2017,02,15,16,39,10.20
2017,02,15,16,40,10.20
2017,02,15,16,41,10.20
2017,02,15,16,42,10.20
2017,02,15,16,43,10.20
2017,02,15,16,44,10.20
2017,02,15,16,45,10.20
2017,02,15,16,46,10.20
2017,02,15,16,47,10.20
2017,02,15,16,48,10.20
2017,02,15,16,49,10.20
2017,02,15,16,50,10.20
2017,02,15,16,51,10.20
2017,02,15,16,52,10.20
2017,02,15,16,53,10.20
2017,02,15,16,54,10.20
2017,02,15,16,55,10.20
2017,02,15,16,56,10.20
2017,02,15,16,57,10.20
2017,02,15,16,58,10.20
2017,02,15,16,59,10.20
2017,02,15,17,00,10.20
2017,02,15,17,01,10.20
2017,02,15,17,02,10.20
2017,02,15,17,03,10.10
2017,02,15,17,04,10.10
2017,02,15,17,05,10.20
2017,02,15,17,06,10.20
2017,02,15,17,07,10.20
2017,02,15,17,08,10.20
2017,02,15,17,09,10.20
2017,02,15,17,10,10.20
2017,02,15,17,11,10.20
2017,02,15,17,12,10.20
2017,02,15,17,13,10.30
2017,02,15,17,14,10.30
2017,02,15,17,15,10.30
2017,02,15,17,16,10.30
2017,02,15,17,17,10.30
2017,02,15,17,18,10.30
2017,02,15,17,19,10.30
2017,02,15,17,20,10.30
2017,02,15,17,21,10.30
2017,02,15,17,22,10.30
2017,02,15,17,23,10.30
2017,02,15,17,24,10.30
2017,02,15,17,25,10.30
2017,02,15,17,26,10.30
2017,02,15,17,27,10.30
2017,02,15,17,28,10.30
2017,02,15,17,29,10.30
2017,02,15,17,30,10.30
2017,02,15,17,31,10.30
2017,02,15,17,32,10.30
2017,02,15,17,33,10.30
2017,02,15,17,34,10.30
2017,02,15,17,35,10.30
2017,02,15,17,36,10.30
2017,02,15,17,37,10.30
2017,02,15,17,38,10.30
2017,02,15,17,39,10.30
2017,02,15,17,40,10.30
2017,02,15,17,41,10.30
2017,02,15,17,42,10.30
2017,02,15,17,43,10.30
2017,02,15,17,44,10.30
2017,02,15,17,45,10.30
2017,02,15,17,46,10.30
2017,02,15,17,47,10.30
2017,02,15,17,48,10.30
2017,02,15,17,49,10.30
2017,02,15,17,50,10.30
2017,02,15,17,51,10.30
2017,02,15,17,52,10.30
2017,02,15,17,53,10.30
2017,02,15,17,54,10.30
2017,02,15,17,55,10.30
2017,02,15,17,56,10.30
2017,02,15,17,57,10.30
2017,02,15,17,58,10.30
2017,02,15,17,59,10.30
2017,02,15,18,00,10.30
2017,02,15,18,01,10.30
2017,02,15,18,02,10.30
2017,02,15,18,03,10.30
2017,02,15,18,04,10.30
2017,02,15,18,05,10.30
2017,02,15,18,06,10.30
2017,02,15,18,07,10.30
2017,02,15,18,08,10.30
2017,02,15,18,09,10.40
2017,02,15,18,10,10.40
2017,02,15,18,11,10.40
2017,02,15,18,12,10.40
2017,02,15,18,13,10.30
2017,02,15,18,14,10.30
2017,02,15,18,15,10.30
2017,02,15,18,16,10.30
2017,02,15,18,17,10.30
2017,02,15,18,18,10.20
2017,02,15,18,19,10.20
2017,02,15,18,20,10.20
2017,02,15,18,21,10.20
2017,02,15,18,22,10.20
2017,02,15,18,23,10.20
2017,02,15,18,24,10.20
2017,02,15,18,25,10.20
2017,02,15,18,26,10.10
2017,02,15,18,27,10.10
2017,02,15,18,28,10.10
2017,02,15,18,29,10.10
2017,02,15,18,30,10.10
2017,02,15,18,31,10.10
2017,02,15,18,32,10.10
2017,02,15,18,33,10.10
2017,02,15,18,34,10.10
2017,02,15,18,35,10.10
2017,02,15,18,36,10.10
2017,02,15,18,37,10.10
2017,02,15,18,38,10.20
2017,02,15,18,39,10.20
2017,02,15,18,40,10.20
2017,02,15,18,41,10.20
2017,02,15,18,42,10.20
2017,02,15,18,43,10.20
2017,02,15,18,44,10.20
2017,02,15,18,45,10.20
2017,02,15,18,46,10.20
2017,02,15,18,47,10.20
2017,02,15,18,48,10.20
2017,02,15,18,49,10.20
2017,02,15,18,50,10.20
2017,02,15,18,51,10.20
2017,02,15,18,52,10.30
2017,02,15,18,53,10.30
2017,02,15,18,54,10.30
2017,02,15,18,55,10.30
2017,02,15,18,56,10.30
2017,02,15,18,57,10.30
2017,02,15,18,58,10.30
2017,02,15,18,59,10.30
2017,02,15,19,00,10.30
2017,02,15,19,01,10.30
2017,02,15,19,02,10.30
2017,02,15,19,03,10.30
2017,02,15,19,04,10.30
2017,02,15,19,05,10.20
2017,02,15,19,06,10.20
2017,02,15,19,07,10.20
2017,02,15,19,08,10.20
2017,02,15,19,09,10.20
2017,02,15,19,10,10.20
2017,02,15,19,11,10.20
2017,02,15,19,12,10.20
2017,02,15,19,13,10.20
2017,02,15,19,14,10.20
2017,02,15,19,15,10.20
2017,02,15,19,16,10.20
2017,02,15,19,17,10.20
2017,02,15,19,18,10.20
2017,02,15,19,19,10.20
2017,02,15,19,20,10.20
2017,02,15,19,21,10.20
2017,02,15,19,22,10.20
2017,02,15,19,23,10.20
2017,02,15,19,24,10.20
2017,02,15,19,25,10.20
2017,02,15,19,26,10.20
2017,02,15,19,27,10.20
2017,02,15,19,28,10.20
2017,02,15,19,29,10.20
2017,02,15,19,30,10.20
2017,02,15,19,31,10.20
2017,02,15,19,32,10.20
2017,02,15,19,33,10.20
2017,02,15,19,34,10.20
2017,02,15,19,35,10.20
2017,02,15,19,36,10.20
2017,02,15,19,37,10.20
2017,02,15,19,38,10.20
2017,02,15,19,39,10.10
2017,02,15,19,40,10.10
2017,02,15,19,41,10.10
2017,02,15,19,42,10.10
2017,02,15,19,43,10.10
2017,02,15,19,44,10.10
2017,02,15,19,45,10.10
2017,02,15,19,46,10.10
2017,02,15,19,47,10.10
2017,02,15,19,48,10.10
2017,02,15,19,49,10.10
2017,02,15,19,50,10.00
2017,02,15,19,51,10.00
2017,02,15,19,52,10.10
2017,02,15,19,53,10.10
2017,02,15,19,54,10.10
2017,02,15,19,55,10.10
2017,02,15,19,56,10.10
2017,02,15,19,57,10.10
2017,02,15,19,58,10.10
2017,02,15,19,59,10.10
2017,02,15,20,00,10.10
2017,02,15,20,01,10.10
2017,02,15,20,02,10.10
2017,02,15,20,03,10.10
2017,02,15,20,04,10.10
2017,02,15,20,05,10.10
2017,02,15,20,06,10.10
2017,02,15,20,07,10.10
2017,02,15,20,08,10.10
2017,02,15,20,09,10.10
2017,02,15,20,10,10.10
2017,02,15,20,11,10.10
2017,02,15,20,12,10.10
2017,02,15,20,13,10.10
2017,02,15,20,14,10.10
2017,02,15,20,15,10.10
2017,02,15,20,16,10.10
2017,02,15,20,17,10.00
2017,02,15,20,18,10.00
2017,02,15,20,19,10.00
2017,02,15,20,20,10.00
2017,02,15,20,21,9.90
2017,02,15,20,22,9.90
2017,02,15,20,23,9.90
2017,02,15,20,24,9.90
2017,02,15,20,25,9.90
2017,02,15,20,26,9.90
2017,02,15,20,27,9.90
2017,02,15,20,28,9.90
2017,02,15,20,29,9.90
2017,02,15,20,30,9.90
2017,02,15,20,31,9.90
2017,02,15,20,32,9.90
2017,02,15,20,33,10.00
2017,02,15,20,34,10.00
2017,02,15,20,35,10.00
2017,02,15,20,36,10.00
2017,02,15,20,37,10.00
2017,02,15,20,38,10.00
2017,02,15,20,39,10.00
2017,02,15,20,40,9.90
2017,02,15,20,41,9.90
2017,02,15,20,42,10.00
2017,02,15,20,43,10.00
2017,02,15,20,44,10.00
2017,02,15,20,45,10.00
2017,02,15,20,46,9.90
2017,02,15,20,47,9.90
2017,02,15,20,48,9.90
2017,02,15,20,49,9.90
2017,02,15,20,50,9.90
2017,02,15,20,51,9.90
2017,02,15,20,52,9.90
2017,02,15,20,53,9.90
2017,02,15,20,54,10.00
2017,02,15,20,55,10.00
2017,02,15,20,56,10.00
2017,02,15,20,57,10.00
2017,02,15,20,58,10.00
2017,02,15,20,59,10.00
2017,02,15,21,00,10.00
2017,02,15,21,01,10.00
2017,02,15,21,02,10.00
2017,02,15,21,03,10.00
2017,02,15,21,04,10.00
2017,02,15,21,05,10.00
2017,02,15,21,06,10.00
2017,02,15,21,07,10.00
2017,02,15,21,08,9.90
2017,02,15,21,09,9.90
2017,02,15,21,10,9.90
2017,02,15,21,11,9.90
2017,02,15,21,12,9.90
2017,02,15,21,13,9.80
2017,02,15,21,14,9.80
2017,02,15,21,15,9.80
2017,02,15,21,16,9.80
2017,02,15,21,17,9.80
2017,02,15,21,18,9.90
2017,02,15,21,19,9.90
2017,02,15,21,20,9.90
2017,02,15,21,21,10.00
2017,02,15,21,22,10.00
2017,02,15,21,23,10.10
2017,02,15,21,24,10.10